OPS 4682 DEB, 18784

Orbit data source: Space-Track

OPS 4682 DEB, 18784 is space debris in LEO originally from a launch on Sat, 03 Apr 1965 UTC launched from the Air Force Western Test Range (AFWTR). Debris objects in space refer to the collection of defunct objects orbiting the Earth. Examples of debris include non-operational satellites, rocket bodies, and fragments generated from explosions, collisions, or faulty payload assembly.

Loading next visibility...
Identifier
18784, 1965-027AL
Orbit
LEO
Last TLE update
16 hours ago
Origin
Manufacturer
Unknown
Mission
Spacecraft
Bus & Motor
Unknown
Mass
Unknown
Launch date (UTC)
1965-04-03 (60 years ago)
Launch vehicle
Unknown
Launch site
Air Force Western Test Range (AFWTR)
Object type
Payload
Rocket body
Debris
Shape & HBR
Unknown
Radar Cross Section
Small (<0.1 m²)

Expand to show TLE details & history

TLE from 16 hours ago
0 OPS 4682 DEB
1 18784U 65027AL  25128.63355175  .00000579  00000-0  19746-2 0  9991
2 18784  90.2492 355.1386 0041574 100.6586 319.3131 12.96939224750150
Epoch: 2025-05-08T15:12Z
Definitive object data (Epoch: 2025-05-08T15:12:18.871Z)
Latitude
59.74695°
Longitude
-100.06639°
Altitude
1,260.246 km
Speed
7.242 km/s
True Right ascension
23h 38m 51s
True Declination
59° 36' 25"
Sunlit
Object was in daylight at TLE epoch
Visualization TLE readout
Latitude
-20.52872°
Longitude
80.28069°
Altitude
1,287.993 km
Speed
7.208 km/s
Apparent Right ascension
08h 48m 15s
Apparent Declination
-51° 32' 46"
Sunlit
Object is in full shadow
Visualization observer readout
Local Sidereal Time
14:53:06
Azimuth
226.395° WSW
Elevation
-30.837°
Doppler factor
1
Orbital elements
Apogee altitude
1,303.035 km
Perigee altitude
1,239.433 km
Semi-major axis
7,649.371 km
Eccentricity
0.0041574
Inclination
90.2492°
RAAN
355.1386°
Arg. of periapsis
100.6586°
True anomaly
319.00129°
Mean anomaly
319.3131°
Eccentric anomaly
319.15732°
Mean motion
3.24418 °/min
BSTAR
0.0019746
Orbital period
110.97 mins
Loading maneuver chart data...
Loading SW <> Apogee altitude chart data...
Loading historical data...
Loading historical data...
Loading historical data...
Loading historical data...
Loading historical data...
Loading historical data...
Loading historical data...

OPS 4682 DEB Visibility forecast

Observer location: undefined°, undefined°

Span
Click to sort rows by Start time (UTC) header in descending order
Start Az.
Max El. time (UTC)
Max El. Az.
Max El.
End time (UTC)
End Az.
13 mins2025-05-09 15:04:13.518Z162.837° S2025-05-09 15:10:13.518Z100.164° ESE42.79°2025-05-09 15:17:13.518Z3.519° NNE
9 mins2025-05-09 16:58:13.518Z246.05° WSW2025-05-09 17:02:13.518Z284.675° WNW19.895°2025-05-09 17:07:13.518Z327.795° NNW
12 mins2025-05-10 02:42:13.518Z19.361° NNE2025-05-10 02:48:13.518Z98.717° ESE36.352°2025-05-10 02:54:13.518Z158.144° S
11 mins2025-05-10 04:33:13.518Z336.058° NNW2025-05-10 04:38:13.518Z283.759° WNW27.324°2025-05-10 04:44:13.518Z227.834° WSW
|